Regional Weather Roundup
Issued by NWS Cleveland, OH

Home | Current Version | Previous Version | Graphics & Text | Print | Product List | Glossary On
Versions: 1 2 3 4 5 6 7 8 9 10 11 12 13 14 15 16 17 18 19 20 21 22 23 24 25 26 27 28 29 30 31 32 33 34 35 36 37 38 39 40 41 42 43 44 45 46 47 48 49 50
000
ASUS41 KCLE 021800
RWRCLE
OHIO REGIONAL WEATHER ROUNDUP
NATIONAL WEATHER SERVICE WILMINGTON, OH
200 PM EDT SUN AUG 02 2015

NOTE: "FAIR" INDICATES FEW OR NO CLOUDS BELOW 12,000 FEET WITH NO
SIGNIFICANT WEATHER AND/OR OBSTRUCTIONS TO VISIBILITY.

OHZ001>008-015>018-024>027-034-035-043-044-021900-
   NORTHWEST OHIO

CITY           SKY/WX    TMP DP  RH WIND       PRES   REMARKS
DEFIANCE       SUNNY     87  63  44 SW13G23   29.86F
FINDLAY        SUNNY     88  62  41 SW13G24   29.89F
TOLEDO EXPRESS SUNNY     86  65  49 SW17      29.84F
TOLEDO EXEC    SUNNY     89  62  40 SW18G29   29.85F
LIMA           SUNNY     86  63  45 W16       29.93F
$$

OHZ009>014-019>023-028>033-038-089-021900-
   NORTHEAST OHIO

CITY           SKY/WX    TMP DP  RH WIND       PRES   REMARKS
CLE-HOPKINS    MOSUNNY   87  64  46 SW12G23   29.89F
CLE-LAKEFRONT  SUNNY     86  66  51 W10       29.86F
CUY CO. ARPT   MOSUNNY   88  64  45 W14       29.89F
LORAIN-ELYRIA  MOSUNNY   85  65  51 W12       29.89F
ASHTABULA      SUNNY     85  58  39 SW12G21   29.89F
AKRON-CANTON   MOSUNNY   85  65  51 W10G18    29.93F
WOOSTER        NOT AVBL
MANSFIELD      SUNNY     85  64  49 SW13G21   29.94F
YOUNGSTOWN     MOSUNNY   83  62  49 SW8       29.92F
$$

OHZ042-051>053-060>062-070>072-077>081-021900-
  SOUTHWEST OHIO

CITY           SKY/WX    TMP DP  RH WIND       PRES   REMARKS
CINC-COVINGTON MOSUNNY   84  61  45 S10       29.99S
CINC-LUNKEN    SUNNY     85  62  46 S9        29.97F
HAMILTON       SUNNY     88  64  44 VRB7      29.97F
DAYTON         NOT AVBL
WRIGHT-PAT AFB NOT AVBL
DAYTON GENERAL SUNNY     84  59  42 W6        29.97F
WILMINGTON     SUNNY     84  60  44 SW9       29.98F
$$

OHZ036-037-039>041-045>050-054>059-063>069-073>076-082>088-021900-
  CENTRAL AND SOUTHEAST OHIO

CITY           SKY/WX    TMP DP  RH WIND       PRES   REMARKS
COLUMBUS       MOSUNNY   86  60  41 SW16G22   29.95F
OSU AIRPORT    MOSUNNY   84  63  49 SW14      29.95F
BOLTON FIELD   MOSUNNY   82  64  54 W6        29.97F
RICKENBACK AFB NOT AVBL
NEWARK         MOSUNNY   86  63  45 SW12      29.95F
MARION         SUNNY     85  62  46 SW17      29.93F
LANCASTER      MOSUNNY   85  64  49 SW7       29.97F
ZANESVILLE     MOSUNNY   84  61  45 SW10      29.96F
NEW PHILLY     MOSUNNY   83  68  60 SW8       29.95S
$$



USA.gov is the U.S. government's official web portal to all federal, state and local government web resources and services.